Location: Krasnoyarskiy Pitomnik
(51.1333°N, 71.6167°E)
Time: 00:56:11
(UTC+00:00)

NOSS 2-2 (C) - Pass Details

Date: 30 May 2022
Orbit: 439 x 1763 km, 63.3° (Epoch: 02 June)

Event Time Altitude Azimuth Distance (km) Brightness Sun altitude
Rises 17:37:22 0° 316° (NW) 2,815 8.3 -14.2°
Reaches altitude 10° 17:39:22 10° 321° (NW) 2,037 7.4 -14.3°
Maximum altitude 17:43:54 58° 41° (NE) 920 4.5 -14.5°
Enters shadow 17:49:58 11° 119° (ESE) 2,722 6.4 -14.9°
